Regional Weather Roundup
Issued by NWS

Home | Current Version | Previous Version | Text Only | Print | Product List | Glossary On
Versions: 1 2 3 4 5 6 7 8 9 10 11 12 13 14 15 16 17 18 19 20 21 22 23 24 25 26 27 28 29 30 31 32 33 34 35 36 37 38 39 40 41 42 43 44 45 46 47 48 49 50
000
ASUS46 KPQR 211210
RWROR

OREGON REGIONAL WEATHER ROUNDUP
NATIONAL WEATHER SERVICE PORTLAND OR
500 AM PDT THU SEP 21 2017

NOTE: "FAIR" INDICATES FEW OR NO CLOUDS BELOW 12,000 FEET WITH
NO SIGNIFICANT WEATHER AND/OR OBSTRUCTIONS TO VISIBILITY.

ORZ001>013-211300-
NORTHWEST OREGON


CITY           SKY/WX    TMP DP  RH WIND       PRES   REMARKS
ASTORIA        MOCLDY    48  45  89 E5        29.87R
6HR MIN TEMP:  47; 6HR MAX TEMP:  50;

NEWPORT        MOCLDY    45  45 100 S3        29.94S
PORTLAND       CLOUDY    49  49 100 SE5       29.91S
6HR MIN TEMP:  48; 6HR MAX TEMP:  50;

VANCOUVER WA   CLOUDY    49  49 100 SE6       29.91R
6HR MIN TEMP:  49; 6HR MAX TEMP:  51;

SCAPPOOSE      CLOUDY    45  45 100 CALM      29.90R
6HR MIN TEMP:  42; 6HR MAX TEMP:  48;

HILLSBORO      FOG       47  46  97 CALM      29.90F VSB 1/4
6HR MIN TEMP:  46; 6HR MAX TEMP:  50;

AURORA         CLOUDY    48  46  93 CALM      29.93R
6HR MIN TEMP:  47; 6HR MAX TEMP:  50;

MCMINNVILLE    MOCLDY    45  44  97 CALM      29.92S
6HR MIN TEMP:  42; 6HR MAX TEMP:  50;

SALEM          CLOUDY    47  45  93 S5        29.92R
6HR MIN TEMP:  42; 6HR MAX TEMP:  48;

EUGENE         MOCLDY    44  44 100 SW7       29.94R
6HR MIN TEMP:  41; 6HR MAX TEMP:  50;

$$

ORZ021-028-211300-
SOUTHWEST OREGON


CITY           SKY/WX    TMP DP  RH WIND       PRES   REMARKS
NORTH BEND     CLOUDY    49  48  97 SE9       29.97R
6HR MIN TEMP:  48; 6HR MAX TEMP:  51; 6HR PCP: TRACE;

BROOKINGS      CLEAR     47  46  97 CALM      29.96R
ROSEBURG       CLOUDY    47  47 100 S3        29.95S FOG
6HR MIN TEMP:  47; 6HR MAX TEMP:  52;

SEXTON SUMMIT  FOG       38  37  97 CALM      29.91S VSB 1/2
6HR MIN TEMP:  38; 6HR MAX TEMP:  39;

GRANTS PASS    FOG       48  46  93 CALM      29.98S VSB 1/4
MEDFORD        CLOUDY    48  48 100 N5        29.93S
6HR MIN TEMP:  48; 6HR MAX TEMP:  50; 6HR PCP: TRACE;

$$

ORZ014>016-041-211300-
COLUMBIA GORGE


CITY           SKY/WX    TMP DP  RH WIND       PRES   REMARKS
TROUTDALE      CLOUDY    50  48  93 CALM      29.91R
6HR MIN TEMP:  48; 6HR MAX TEMP:  51; 6HR PCP:  0.03;

THE DALLES     PTCLDY    51  45  79 VRB6      29.85R
6HR MIN TEMP:  47; 6HR MAX TEMP:  53;

$$

ORZ029>031-041-044-049-050-061>064-502-503-505>511-211300-
EASTERN OREGON


CITY           SKY/WX    TMP DP  RH WIND       PRES   REMARKS
MADRAS         CLOUDY   N/A N/A N/A SE5       29.89S
REDMOND        CLEAR     31  27  85 S3        29.87R
6HR MIN TEMP:  29; 6HR MAX TEMP:  43;

BEND           CLOUDY    37  34  87 CALM      29.89R
PRINEVILLE     PTCLDY    34  32  93 CALM      29.88R
KLAMATH FALLS  MOCLDY    33  31  92 CALM      29.88S
6HR MIN TEMP:  28; 6HR MAX TEMP:  38;

LAKEVIEW       CLOUDY    24  23  96 N7        29.87R WCI  16
HERMISTON      CLEAR     48  40  73 SW8       29.84R
6HR MIN TEMP:  45; 6HR MAX TEMP:  49;

PENDLETON      CLOUDY    45  38  76 CALM      29.83R
6HR MIN TEMP:  44; 6HR MAX TEMP:  49;

MEACHAM        CLOUDY    39  36  89 CALM      29.82R
6HR MIN TEMP:  38; 6HR MAX TEMP:  40; 6HR PCP:  0.02;

LA GRANDE      CLOUDY    40  37  89 S3        29.84R
6HR MIN TEMP:  39; 6HR MAX TEMP:  43; 6HR PCP:  0.01;

BAKER CITY     CLOUDY    30  26  85 N3        29.83R
6HR MIN TEMP:  29; 6HR MAX TEMP:  39;

BURNS          CLOUDY    30  30 100 W6        29.85R WCI  24
6HR MIN TEMP:  24; 6HR MAX TEMP:  35;

ROME             N/A     36  33  89 S3        29.81R
6HR MIN TEMP:  35; 6HR MAX TEMP:  44;

ONTARIO        NOT AVBL
$$



USA.gov is the U.S. government's official web portal to all federal, state and local government web resources and services.